TimeCDT,TemperatureF,Dew PointF,Humidity,Sea Level PressureIn,VisibilityMPH,Wind Direction,Wind SpeedMPH,Gust SpeedMPH,PrecipitationIn,Events,Conditions,WindDirDegrees,DateUTC
12:53 AM,54.0,37.0,53,29.78,10.0,South,12.7,-,N/A,,Clear,180,2011-10-16 05:53:00
1:53 AM,53.1,37.9,57,29.76,10.0,South,8.1,-,N/A,,Clear,190,2011-10-16 06:53:00
2:53 AM,51.1,39.0,63,29.76,10.0,SSW,6.9,-,N/A,,Clear,200,2011-10-16 07:53:00
3:53 AM,52.0,39.0,61,29.77,10.0,WSW,5.8,-,N/A,,Clear,240,2011-10-16 08:53:00
4:53 AM,51.1,39.9,66,29.77,10.0,West,3.5,-,N/A,,Partly Cloudy,270,2011-10-16 09:53:00
5:53 AM,54.0,42.1,64,29.78,10.0,West,4.6,-,N/A,,Partly Cloudy,260,2011-10-16 10:53:00
6:53 AM,52.0,42.1,69,29.79,10.0,NNW,3.5,-,N/A,,Partly Cloudy,330,2011-10-16 11:53:00
7:53 AM,48.0,41.0,77,29.86,10.0,NNW,13.8,-,N/A,,Clear,340,2011-10-16 12:53:00
8:53 AM,50.0,42.1,74,29.92,10.0,North,12.7,20.7,N/A,,Clear,350,2011-10-16 13:53:00
9:53 AM,52.0,43.0,71,29.94,10.0,NW,5.8,-,0.00,,Clear,310,2011-10-16 14:53:00
10:53 AM,57.9,43.0,58,29.94,10.0,NW,16.1,-,N/A,,Clear,320,2011-10-16 15:53:00
11:53 AM,55.9,39.0,53,29.95,10.0,NNW,20.7,-,N/A,,Clear,340,2011-10-16 16:53:00
12:53 PM,55.9,39.0,53,29.97,10.0,NW,13.8,-,N/A,,Clear,320,2011-10-16 17:53:00
1:53 PM,57.9,37.0,46,29.96,10.0,NW,16.1,-,N/A,,Clear,320,2011-10-16 18:53:00
2:53 PM,57.9,37.0,46,29.96,10.0,WNW,18.4,-,N/A,,Clear,300,2011-10-16 19:53:00
3:53 PM,57.9,37.0,46,29.96,10.0,WNW,13.8,-,N/A,,Clear,290,2011-10-16 20:53:00
4:53 PM,55.9,37.0,49,29.96,10.0,WNW,8.1,-,N/A,,Clear,290,2011-10-16 21:53:00
5:53 PM,54.0,37.0,53,29.95,10.0,WSW,8.1,-,N/A,,Clear,240,2011-10-16 22:53:00
6:53 PM,48.9,36.0,61,29.96,10.0,WSW,6.9,-,N/A,,Clear,240,2011-10-16 23:53:00
7:53 PM,50.0,36.0,59,29.98,10.0,West,4.6,-,N/A,,Clear,270,2011-10-17 00:53:00
8:53 PM,45.0,35.1,68,29.99,10.0,West,5.8,-,N/A,,Clear,270,2011-10-17 01:53:00
9:53 PM,44.1,34.0,68,30.00,10.0,West,6.9,-,N/A,,Clear,260,2011-10-17 02:53:00
10:53 PM,43.0,32.0,65,30.01,10.0,West,6.9,-,N/A,,Clear,280,2011-10-17 03:53:00
11:53 PM,39.0,30.9,73,30.01,10.0,WSW,6.9,-,N/A,,Clear,250,2011-10-17 04:53:00